Regional Weather Roundup
Issued by NWS

Home | Current Version | Previous Version | Text Only | Print | Product List | Glossary Off
Versions: 1 2 3 4 5 6 7 8 9 10 11 12 13 14 15 16 17 18 19 20 21 22 23 24 25 26 27 28 29 30 31 32 33 34 35 36 37 38 39 40 41 42 43 44 45 46 47 48 49 50

000
ASUS43 KLMK 301202
RWRKY
KENTUCKY REGIONAL WEATHER ROUNDUP
NATIONAL WEATHER SERVICE LOUISVILLE KY
800 AM EDT WED JUL 30 2014

NOTE "FAIR" INDICATES FEW OR NO CLOUDS BELOW 12,000 FEET
WITH NO SIGNIFICANT WEATHER AND/OR OBSTRUCTIONS TO VISIBILITY.

KYZ001>023-026-027-061>063-070>075-301300-
WESTERN AND SOUTH CENTRAL KENTUCKY

CITY           SKY/WX    TMP DP  RH WIND       PRES   REMARKS
PADUCAH        PTSUNNY   60  56  86 CALM      30.10S
HENDERSON      SUNNY     59  55  88 SW3       30.09S
OWENSBORO      SUNNY     59  57  92 CALM      30.10R
HOPKINSVILLE   MOSUNNY   60  57  91 SW1       30.11S
BOWLING GREEN  SUNNY     59  55  87 CALM      30.11S
GLASGOW        MOSUNNY   56  56 100 CALM      30.12R FOG
$$

KYZ024-025-028>034-038-045-046-053-301300-
NORTH CENTRAL KENTUCKY

CITY           SKY/WX    TMP DP  RH WIND       PRES   REMARKS
LOUISVILLE/SDF MOSUNNY   64  58  80 SW3       30.09R HAZE
LOUISVILLE/LOU SUNNY     62  58  86 CALM      30.10R
FORT KNOX      SUNNY     58  55  88 SW2       30.09S
$$

KYZ035>037-039>044-047>052-055>060-089>105-301300-
NORTHEAST KENTUCKY

CITY           SKY/WX    TMP DP  RH WIND       PRES   REMARKS
LEXINGTON      CLOUDY    61  55  81 S6        30.11R
COVINGTON      PTSUNNY   62  58  86 SW5       30.07S
FRANKFORT      MOSUNNY   59  56  89 SW5       30.09R
$$

KYZ054-064>069-076>088-106>120-301300-
SOUTHEAST KENTUCKY

CITY           SKY/WX    TMP DP  RH WIND       PRES   REMARKS
JACKSON        FOG       54  53  97 CALM      30.13R VSB<1/4
LONDON         SUNNY     55  52  89 SE3       30.13R
SOMERSET       FOG       54  54 100 CALM      30.13S VSB<1/4
MIDDLESBORO    CLOUDY    53  53  99 CALM      30.15S FOG
MONTICELLO     SUNNY     55  54  97 CALM      30.14S
$$



USA.gov is the U.S. government's official web portal to all federal, state and local government web resources and services.